Regional Weather Roundup
Issued by NWS

Home | Current Version | Previous Version | Text Only | Print | Product List | Glossary On
Versions: 1 2 3 4 5 6 7 8 9 10 11 12 13 14 15 16 17 18 19 20 21 22 23 24 25 26 27 28 29 30 31 32 33 34 35 36 37 38 39 40 41 42 43 44 45 46 47 48 49 50
000
ASCA42 TJSJ 291011
RWRPR
PUERTO RICO/U.S. VIRGIN ISLANDS HOURLY WEATHER ROUNDUP
NATIONAL WEATHER SERVICE SAN JUAN PR
600 AM AST FRI AUG 29 2014

PRZ001-004-291100-
PUERTO RICO

CITY           SKY/WX    TMP DP  RH WIND       PRES   REMARKS
SAN JUAN LMM   MOCLDY    79  73  83 SE3       30.00S
CEIBA          CLEAR     75  73  94 CALM      30.03R
$$

PRZ006-007-291100-
U.S. VIRGIN ISLANDS

CITY           SKY/WX    TMP DP  RH WIND       PRES   REMARKS
CHARLOTTE AMA  PTCLDY    79  73  83 E3        30.00
CHRISTIANSTED  CLEAR     73  72  94 CALM      30.00S
$$

HOURLY WEATHER ROUNDUP FOR THE NEWS MEDIA

CITY           SKY/WX    TMP DP  RH WIND       PRES   REMARKS
MIAMI          PTCLDY    83  76  79 CALM      30.01S HX  91
ORLANDO        CLEAR     77  74  90 SE6       30.00F
NEW YORK       PTCLDY    64  49  57 N8        30.13R
NEWARK         PTCLDY    62  51  67 N6        30.13R
CHICAGO        CLOUDY    71  63  75 S6        29.97S
HARTFORD       CLEAR     53  49  86 CALM      30.07R
BOSTON         PTCLDY    60  50  69 NW10      30.08R
DALLAS         CLOUDY    73  66  78 N9        29.93F
PHILADELPHIA   MOCLDY    62  49  62 N8        30.14R



USA.gov is the U.S. government's official web portal to all federal, state and local government web resources and services.